Total_Precipitation_Accumulation
0.86 0.90 0.86 0.90 0.89 1.11 1.36 1.43 1.38 1.53 1.55 1.41 1.21 1.04 0.96 0.86 0.72 0.79 0.89 0.83 0.75 0.83 1.04 1.07 0.96 0.89 0.87 0.74 0.69 0.70 0.73 0.70 0.66 0.54 0.41 0.38 0.44 0.50 0.46 0.38 0.34 0.29 0.29
1.30 1.40 1.30 1.25 1.15 1.21 1.39 1.54 1.57 1.94 1.85 1.79 1.45 1.25 1.18 1.08 0.95 0.88 0.93 1.01 0.87 0.76 0.82 0.99 1.08 1.02 0.98 0.88 0.78 0.73 0.70 0.68 0.61 0.45 0.36 0.33 0.39 0.49 0.49 0.44 0.36 0.29 0.22
1.54 1.66 1.66 1.54 1.55 1.51 1.61 1.63 1.80 2.02 1.79 1.73 1.50 1.40 1.28 1.16 1.03 1.01 1.05 1.10 1.00 0.86 0.70 0.76 0.93 1.00 1.05 1.07 1.02 0.89 0.73 0.63 0.58 0.45 0.34 0.32 0.37 0.44 0.45 0.47 0.43 0.32 0.22
1.85 1.93 1.75 1.64 1.86 1.91 1.92 1.97 2.03 2.06 1.93 1.87 1.69 1.41 1.25 1.19 0.92 0.91 0.91 0.88 0.89 0.76 0.75 0.86 0.92 0.94 1.04 1.12 1.16 1.12 0.96 0.77 0.66 0.56 0.43 0.37 0.41 0.45 0.42 0.42 0.42 0.34 0.24
1.80 1.93 1.76 1.80 2.03 2.11 2.08 1.91 2.17 2.15 2.08 1.96 1.64 1.36 1.12 0.95 0.80 0.69 0.66 0.58 0.63 0.61 0.61 0.73 0.80 0.79 0.97 1.17 1.22 1.23 1.20 1.06 0.88 0.76 0.69 0.60 0.53 0.48 0.45 0.43 0.40 0.35 0.28
1.87 2.00 1.87 1.95 2.11 2.18 2.10 2.10 2.21 2.24 2.09 2.01 1.60 1.28 1.06 0.80 0.69 0.61 0.50 0.51 0.50 0.43 0.41 0.53 0.67 0.61 0.82 1.01 1.04 1.16 1.25 1.21 1.07 0.97 0.94 0.89 0.82 0.70 0.56 0.51 0.50 0.46 0.37
1.93 2.10 1.98 2.10 2.12 1.98 1.97 2.13 2.25 2.10 1.88 2.02 1.77 1.20 0.86 0.67 0.63 0.55 0.50 0.55 0.50 0.45 0.42 0.53 0.62 0.61 0.61 0.69 0.73 0.84 1.11 1.30 1.23 1.07 0.99 0.98 1.05 1.06 0.79 0.71 0.71 0.65 0.55
1.82 1.85 1.88 1.87 1.90 1.93 1.93 1.98 2.14 1.96 1.64 1.82 1.76 1.47 0.93 0.71 0.61 0.50 0.52 0.49 0.45 0.49 0.52 0.57 0.70 0.76 0.68 0.73 0.69 0.61 0.89 1.23 1.31 1.29 1.14 1.06 1.14 1.20 1.01 1.00 0.91 0.77 0.67
1.53 1.54 1.57 1.71 1.92 2.01 1.92 1.93 1.96 1.84 1.55 1.57 1.70 1.74 1.24 0.86 0.65 0.41 0.41 0.45 0.53 0.61 0.61 0.75 0.80 0.81 0.83 0.92 0.98 0.88 0.73 0.83 1.04 1.32 1.37 1.23 1.12 1.08 1.20 1.30 1.18 0.94 0.74
1.39 1.36 1.39 1.44 1.50 1.59 1.60 1.53 1.65 1.75 1.68 1.51 1.61 1.64 1.50 1.30 1.09 0.68 0.51 0.50 0.62 0.67 0.72 0.71 0.68 0.69 0.88 1.08 1.18 1.10 0.96 0.83 0.80 1.09 1.36 1.41 1.22 1.08 1.22 1.42 1.57 1.33 0.91
1.26 1.26 1.21 1.19 1.16 1.22 1.34 1.37 1.46 1.50 1.54 1.51 1.52 1.57 1.55 1.50 1.46 1.24 0.86 0.82 0.80 0.67 0.69 0.69 0.65 0.68 0.86 1.00 1.07 1.03 1.09 0.96 0.90 0.88 0.97 1.13 1.16 1.12 1.14 1.36 1.75 1.83 1.50
1.02 1.01 1.04 1.06 1.04 1.09 1.18 1.26 1.32 1.28 1.36 1.40 1.43 1.49 1.53 1.51 1.55 1.55 1.23 1.08 0.97 0.81 0.80 0.73 0.68 0.68 0.83 0.91 0.84 0.93 0.87 0.79 0.77 0.81 0.81 0.91 0.92 0.95 1.03 1.25 1.63 1.94 1.99
0.73 0.76 0.77 0.85 0.90 0.99 1.02 1.03 1.11 1.20 1.33 1.39 1.40 1.46 1.49 1.46 1.44 1.50 1.44 1.20 1.08 0.95 0.96 0.88 0.74 0.71 0.69 0.86 0.79 0.68 0.54 0.45 0.45 0.49 0.49 0.57 0.65 0.73 0.84 0.98 1.21 1.49 1.77
0.55 0.61 0.70 0.82 0.90 0.95 0.95 0.98 0.98 1.04 1.18 1.31 1.40 1.55 1.47 1.38 1.40 1.46 1.54 1.49 1.28 1.12 1.13 0.98 0.84 0.73 0.70 0.74 0.69 0.54 0.42 0.33 0.30 0.29 0.27 0.28 0.34 0.42 0.54 0.69 0.86 0.98 1.13
0.53 0.57 0.65 0.76 0.89 1.00 1.03 1.01 1.02 1.11 1.25 1.33 1.46 1.54 1.46 1.44 1.46 1.46 1.56 1.63 1.54 1.33 1.16 1.09 0.96 0.80 0.72 0.63 0.54 0.53 0.50 0.40 0.29 0.23 0.19 0.18 0.21 0.25 0.31 0.44 0.58 0.71 0.80
0.49 0.54 0.62 0.69 0.71 0.77 0.83 0.83 0.92 1.04 1.18 1.24 1.26 1.31 1.36 1.41 1.54 1.50 1.55 1.63 1.66 1.52 1.21 1.16 1.08 0.87 0.87 0.61 0.52 0.51 0.45 0.38 0.28 0.22 0.17 0.17 0.19 0.22 0.25 0.30 0.39 0.51 0.62
0.44 0.48 0.54 0.54 0.55 0.55 0.58 0.63 0.74 0.88 0.95 0.96 0.94 0.98 1.02 1.11 1.24 1.29 1.36 1.43 1.54 1.57 1.27 1.25 1.39 1.28 1.22 0.94 0.72 0.61 0.42 0.33 0.30 0.25 0.19 0.16 0.15 0.19 0.24 0.26 0.28 0.33 0.42
0.38 0.41 0.43 0.45 0.44 0.46 0.53 0.59 0.66 0.74 0.81 0.80 0.79 0.80 0.77 0.86 0.99 1.06 1.15 1.25 1.41 1.59 1.43 1.33 1.50 1.56 1.46 1.24 1.06 0.84 0.57 0.39 0.37 0.33 0.22 0.17 0.15 0.16 0.22 0.25 0.25 0.26 0.31
0.31 0.34 0.39 0.42 0.46 0.53 0.63 0.73 0.79 0.76 0.68 0.62 0.57 0.55 0.56 0.63 0.73 0.85 0.98 1.05 1.16 1.48 1.53 1.40 1.43 1.67 1.66 1.47 1.37 1.08 0.85 0.74 0.50 0.41 0.27 0.20 0.19 0.19 0.21 0.26 0.27 0.27 0.27
0.34 0.40 0.46 0.52 0.60 0.63 0.66 0.70 0.71 0.73 0.68 0.58 0.46 0.39 0.39 0.47 0.59 0.69 0.79 0.89 1.00 1.15 1.33 1.41 1.42 1.61 1.68 1.56 1.60 1.35 1.10 0.92 0.73 0.55 0.44 0.29 0.23 0.25 0.27 0.27 0.29 0.32 0.34
0.29 0.42 0.51 0.56 0.65 0.62 0.57 0.57 0.57 0.52 0.52 0.51 0.45 0.35 0.32 0.35 0.43 0.53 0.59 0.69 0.80 0.93 1.05 1.21 1.33 1.46 1.63 1.58 1.45 1.40 1.23 1.05 0.94 0.86 0.84 0.57 0.33 0.28 0.29 0.31 0.34 0.40 0.47
0.27 0.35 0.39 0.44 0.50 0.45 0.39 0.37 0.38 0.40 0.42 0.43 0.42 0.38 0.32 0.30 0.31 0.36 0.43 0.49 0.55 0.61 0.76 0.96 1.09 1.21 1.36 1.50 1.46 1.48 1.38 1.15 1.03 0.97 1.02 1.07 0.80 0.60 0.48 0.33 0.31 0.38 0.50
0.32 0.37 0.35 0.36 0.38 0.42 0.35 0.29 0.26 0.29 0.35 0.37 0.38 0.35 0.27 0.24 0.25 0.23 0.25 0.31 0.39 0.40 0.45 0.63 0.78 0.82 0.91 1.08 1.31 1.47 1.53 1.36 1.21 1.19 1.16 1.29 1.38 1.17 0.79 0.53 0.41 0.35 0.42
0.44 0.45 0.40 0.38 0.39 0.38 0.33 0.26 0.23 0.24 0.30 0.34 0.35 0.32 0.27 0.23 0.25 0.25 0.27 0.27 0.25 0.25 0.27 0.31 0.40 0.57 0.68 0.80 1.01 1.20 1.43 1.58 1.45 1.39 1.33 1.44 1.58 1.81 1.43 0.93 0.70 0.52 0.50
0.49 0.49 0.44 0.42 0.43 0.40 0.33 0.25 0.25 0.31 0.36 0.36 0.37 0.34 0.30 0.25 0.24 0.22 0.27 0.28 0.25 0.22 0.22 0.26 0.31 0.43 0.60 0.71 0.84 1.03 1.21 1.30 1.32 1.40 1.43 1.53 1.61 1.77 2.10 1.74 1.10 0.71 0.53
0.52 0.47 0.46 0.49 0.50 0.49 0.39 0.28 0.26 0.31 0.38 0.41 0.47 0.45 0.34 0.28 0.26 0.23 0.23 0.24 0.23 0.21 0.20 0.21 0.26 0.33 0.40 0.53 0.67 0.76 0.87 0.96 0.98 1.06 1.04 1.03 1.14 1.30 1.79 2.15 1.84 1.24 0.82